Wind_Speed
6 8 1 3 3 4 3 6 1 2 6 3 4 4 8 7 7 6 7 30 35 40 44 43 42 40 36 34 33 32 30 29 28 27 26 25 24 23 21 19 17 15 13 11 11 10 9 8 8
9 0 3 3 4 1 4 4 2 3 5 7 9 3 5 14 18 6 6 31 42 45 45 44 43 41 39 37 35 34 32 30 28 27 25 24 23 21 20 18 16 14 13 12 10 9 8 7 7
4 1 3 4 4 6 4 3 4 4 8 4 4 5 4 4 2 6 9 37 45 48 46 44 43 43 40 38 36 35 32 31 29 27 26 24 22 20 19 18 17 15 13 12 10 9 8 7 7
4 3 3 3 9 4 3 3 3 8 4 3 1 8 6 5 3 12 16 39 46 49 47 46 44 43 42 41 39 37 34 32 30 28 26 24 22 20 19 18 16 14 13 11 10 9 8 8 7
2 3 1 3 8 3 2 4 4 7 5 6 4 6 6 5 9 16 36 42 48 49 47 46 46 44 41 40 39 37 35 33 31 28 26 25 23 21 20 18 16 14 13 11 10 10 9 8 7
1 3 1 4 10 4 4 6 3 2 4 9 6 6 6 16 9 13 40 37 43 51 48 44 45 44 40 39 38 37 34 32 30 28 27 25 24 22 21 19 17 14 13 11 10 9 9 9 8
4 3 4 4 1 2 8 4 5 3 5 5 7 4 8 6 4 11 27 32 34 42 45 43 42 41 40 38 37 36 34 32 30 28 27 25 23 22 21 19 17 15 14 12 11 10 10 9 9
4 3 3 4 2 3 3 2 4 2 5 8 4 6 12 10 4 13 18 20 31 37 43 43 42 41 40 39 36 34 33 32 29 28 26 25 23 22 20 19 18 16 15 13 12 12 11 10 10
3 1 4 5 5 2 3 3 3 3 5 5 4 4 5 6 4 10 12 12 22 32 38 40 42 42 40 38 36 33 32 31 29 27 25 25 25 24 21 21 19 18 17 16 14 14 13 12 11
4 4 7 1 3 2 6 0 6 4 6 3 5 7 16 6 4 7 5 2 14 16 30 37 40 41 40 37 34 34 33 32 31 29 27 27 27 25 22 20 20 18 17 17 16 15 15 14 14
3 5 3 1 1 2 5 8 3 5 6 3 10 11 10 5 7 2 7 6 12 16 25 31 35 39 38 37 35 33 33 32 31 30 28 29 27 24 23 22 21 20 19 19 18 17 18 17 16
0 3 4 5 5 4 3 7 7 9 5 7 8 9 7 9 7 5 9 13 11 16 21 31 33 34 37 37 37 35 34 34 34 33 32 31 28 26 24 23 21 21 20 19 19 19 19 18 18
3 2 6 7 6 6 7 8 7 19 8 9 9 8 9 9 9 10 12 6 16 23 27 29 32 35 37 38 38 38 38 38 38 35 34 31 29 28 25 25 22 22 21 20 19 19 19 19 20
2 2 5 6 6 5 6 13 5 17 5 9 7 9 8 7 9 6 8 17 12 16 28 32 34 39 37 39 41 41 41 41 39 37 36 33 31 28 26 25 24 23 22 20 19 19 20 20 20
4 5 5 6 4 5 8 10 16 6 6 8 8 7 8 7 11 7 10 17 25 22 13 24 32 39 43 44 44 42 40 39 38 36 35 33 31 30 27 25 24 23 22 20 18 19 19 20 19
4 4 3 5 4 4 7 6 5 4 7 5 6 5 7 7 6 13 16 16 18 22 22 17 20 32 43 49 46 42 43 40 39 37 37 36 31 30 28 25 24 22 21 18 17 18 20 20 19
4 1 2 7 5 4 0 4 7 13 5 6 9 6 5 6 7 12 15 19 20 21 22 27 23 31 38 43 45 43 43 41 35 39 38 36 32 30 28 25 22 21 21 19 17 18 21 21 19
3 2 3 4 6 5 8 7 6 6 7 9 8 7 6 6 6 10 14 17 19 23 23 22 20 30 32 34 34 37 41 37 37 40 39 36 33 31 29 25 21 22 21 20 18 20 20 21 18
3 3 5 5 5 5 8 16 10 7 7 9 8 7 7 6 5 6 10 16 18 25 25 24 24 19 26 28 28 29 33 39 42 44 42 40 32 32 29 25 22 22 22 20 18 19 21 20 16
4 3 4 5 5 7 9 23 18 13 8 8 7 7 8 3 4 4 11 14 19 22 25 26 23 23 22 27 28 26 25 31 38 37 42 37 32 32 29 25 24 20 20 19 18 21 20 16 15
3 4 3 5 3 5 7 9 5 5 2 3 6 7 7 5 1 5 5 11 15 23 25 27 27 25 25 23 27 27 27 19 21 34 35 38 33 34 26 26 25 20 20 20 20 24 25 17 14
3 4 4 5 4 3 4 6 2 8 9 4 8 9 8 8 7 3 8 9 14 20 29 29 28 28 29 27 26 31 28 24 31 35 35 37 33 29 27 27 25 22 20 20 21 24 23 19 14
7 3 3 3 3 2 3 4 5 4 4 8 9 7 6 9 8 10 11 14 21 20 25 30 30 29 30 29 28 30 31 30 32 31 30 29 25 26 27 29 26 24 22 20 21 22 21 21 18
3 4 5 4 2 2 6 5 1 2 6 6 6 7 7 7 8 9 14 18 21 23 24 27 29 30 29 30 32 31 33 32 33 29 26 25 25 25 27 26 25 26 24 21 22 21 19 21 22
5 6 5 4 2 5 1 4 8 10 17 6 8 8 9 8 9 11 14 15 22 26 29 27 25 31 29 29 32 33 38 37 38 35 34 28 25 25 30 26 26 28 25 22 22 21 20 22 20
4 6 4 5 3 6 3 8 7 6 9 7 6 7 8 9 6 11 16 16 23 27 30 31 27 33 30 27 33 33 38 35 36 36 34 32 28 30 29 25 27 27 24 23 21 21 21 21 19
2 3 4 2 2 2 5 8 12 15 12 5 7 8 9 7 8 14 16 23 27 27 29 31 29 35 31 30 34 36 37 35 32 37 40 38 31 29 24 25 28 26 23 22 20 20 23 18 18
5 5 0 3 3 5 5 6 10 11 15 5 9 10 9 6 10 14 19 20 28 33 30 29 31 35 34 35 32 33 36 38 38 40 38 36 31 26 24 28 28 27 23 23 21 20 20 19 17
1 1 3 3 4 4 5 6 5 6 9 9 8 8 10 8 9 15 19 26 27 30 29 30 34 33 32 30 36 34 34 37 38 38 40 35 28 28 29 29 29 27 25 23 21 23 20 20 18
5 6 6 3 4 4 3 15 4 14 13 7 11 13 8 8 7 16 19 22 26 27 28 32 34 32 29 31 34 34 35 35 34 38 37 29 30 31 28 28 30 29 27 23 24 23 21 19 17
Wind_Direction
341 346 59 35 54 58 267 264 272 338 337 236 204 169 216 194 174 214 310 184 178 172 175 174 173 168 169 166 164 160 158 157 156 156 158 159 161 161 165 165 165 164 164 158 151 147 143 139 135
12 69 66 75 104 269 275 251 227 215 241 278 289 220 227 246 225 305 117 172 174 173 176 176 175 170 170 170 168 165 162 161 162 160 162 164 165 166 168 170 169 168 165 161 153 149 146 143 134
35 352 99 128 143 218 219 187 220 250 261 239 281 240 241 245 239 213 216 172 171 173 176 178 178 172 171 172 171 170 168 167 168 167 169 170 172 172 174 176 174 174 171 166 160 155 154 152 149
114 341 61 153 224 221 201 215 267 323 317 259 283 306 305 260 248 197 186 174 172 174 177 179 180 178 173 175 174 174 173 173 174 174 176 176 179 179 181 182 182 180 177 171 168 167 169 165 166
68 57 102 226 247 137 226 260 282 298 280 293 330 283 268 5 311 190 173 173 175 176 180 181 182 182 178 179 178 178 179 180 180 180 183 183 185 186 188 188 190 188 188 182 181 179 182 179 178
35 123 147 220 243 100 355 263 256 244 287 294 334 298 285 350 357 167 170 174 179 176 182 185 187 185 181 183 184 184 185 186 186 188 190 191 191 193 193 192 195 196 200 196 194 191 193 192 188
167 140 229 260 59 108 177 246 296 320 299 305 293 341 299 356 63 165 167 172 180 179 183 186 190 191 186 187 189 189 190 193 193 196 197 199 199 201 197 198 203 206 209 210 207 205 206 204 203
146 142 214 241 241 222 276 38 282 330 292 318 9 11 335 335 81 160 161 169 181 183 186 189 191 193 192 191 194 196 196 200 202 203 205 207 208 207 207 207 210 213 217 219 218 219 217 217 219
138 115 236 232 134 211 243 54 315 298 274 336 324 1 309 341 113 101 127 158 181 187 191 194 194 195 195 196 196 200 203 206 209 210 214 214 215 212 212 216 216 220 225 226 227 226 226 224 226
163 170 216 332 113 21 293 344 329 302 316 288 315 336 347 346 69 77 22 272 195 199 199 200 200 199 197 199 201 203 207 210 213 215 217 221 221 221 220 222 224 228 233 237 236 237 235 228 234
182 211 205 270 130 255 274 297 222 294 295 356 315 321 332 347 341 215 178 226 230 225 213 212 210 204 202 202 205 209 210 215 218 220 221 226 228 229 229 225 230 235 236 236 238 239 239 237 239
194 286 5 322 346 320 287 314 288 261 264 304 303 293 297 320 316 300 227 205 229 233 239 222 217 216 209 209 210 213 215 217 221 223 225 227 229 230 234 235 234 240 243 242 242 244 244 246 245
155 355 321 305 295 282 289 272 272 279 284 280 291 296 288 283 270 299 297 251 235 215 244 236 231 223 220 215 216 218 220 222 224 225 227 230 232 233 236 240 240 243 247 248 250 250 251 251 252
307 239 271 265 239 246 252 275 246 268 18 321 285 284 273 278 269 284 300 296 262 252 231 234 234 234 226 223 223 221 224 225 228 230 231 232 235 237 240 244 246 249 250 251 254 255 256 255 256
315 318 310 228 232 237 202 257 251 310 352 264 297 324 305 318 346 315 296 290 297 286 281 239 234 229 229 230 230 227 229 232 234 236 240 238 236 239 242 245 249 251 249 251 255 256 255 251 250
34 36 357 290 338 280 151 263 317 49 359 315 305 317 318 327 341 349 358 351 334 318 294 269 245 241 233 229 233 233 233 237 239 240 240 243 240 240 241 239 243 249 246 247 251 251 250 248 246
359 238 288 313 322 279 6 280 314 327 325 295 300 291 285 297 321 337 354 348 339 334 319 308 275 244 239 235 233 235 239 238 244 246 248 247 243 240 238 236 238 244 244 244 245 243 242 245 246
254 303 291 263 297 354 304 287 288 305 310 290 287 299 293 307 298 323 337 344 344 343 340 318 289 246 239 237 233 233 235 240 240 243 246 243 240 239 235 235 235 237 241 242 238 237 240 242 250
232 203 221 257 267 343 293 289 284 265 265 274 268 269 281 280 267 293 317 328 332 332 330 329 320 283 241 223 220 225 230 236 238 238 240 238 235 239 233 234 233 232 236 241 239 236 235 235 240
208 245 261 283 297 314 294 290 288 263 235 225 251 272 271 252 255 293 326 331 327 325 325 320 319 317 285 246 235 219 221 232 240 239 239 238 237 237 232 235 235 234 236 232 233 230 219 226 225
217 229 245 243 281 271 302 290 296 330 265 235 263 255 270 280 333 296 309 319 322 319 318 311 310 308 304 272 240 225 221 224 237 243 239 239 232 232 234 237 236 235 234 236 232 225 219 208 214
282 217 248 282 358 297 60 280 228 234 251 302 279 288 294 298 317 233 297 303 304 305 310 305 304 300 298 294 246 227 227 220 230 245 246 238 227 232 236 241 240 237 233 234 230 224 219 213 201
234 352 286 278 282 345 289 293 260 143 210 287 295 264 271 295 294 303 313 307 307 304 304 303 302 296 292 289 274 246 237 236 233 235 240 243 231 226 234 239 237 230 228 225 224 215 210 216 212
344 4 353 47 73 326 242 199 216 179 122 264 265 287 281 282 294 301 301 307 306 309 305 304 305 297 289 279 274 252 238 234 228 221 226 227 218 223 234 233 230 225 223 217 212 206 205 211 215
70 49 338 334 7 233 189 295 248 288 302 250 260 275 292 299 307 310 316 318 314 310 310 305 297 291 289 273 269 258 238 233 228 222 219 208 206 222 236 228 222 222 218 212 203 198 206 210 209
232 151 167 255 223 270 304 258 257 241 252 232 241 278 287 300 305 313 315 310 304 305 303 299 289 289 287 272 263 257 245 231 230 224 215 209 211 227 234 224 219 217 211 203 200 201 203 203 204
194 166 192 246 202 349 222 289 297 271 257 280 265 255 277 291 305 319 322 312 302 298 293 287 282 284 277 269 255 250 246 231 224 222 218 219 216 223 224 219 211 207 201 201 199 196 195 193 198
165 166 197 11 296 264 258 251 244 288 288 249 287 295 297 294 310 318 319 302 289 288 287 277 276 275 273 272 247 239 240 233 223 222 216 214 211 213 214 207 202 197 197 199 196 198 193 181 187
144 277 90 148 163 222 296 253 217 241 263 269 269 274 279 280 309 315 325 319 302 291 285 282 281 274 269 262 245 234 228 225 220 217 218 208 206 211 204 201 196 195 195 199 194 198 183 179 183
168 201 167 167 236 224 231 270 257 270 279 293 288 296 260 258 300 332 339 320 321 312 300 300 290 273 262 257 233 225 224 218 210 212 211 202 207 207 199 199 195 193 192 190 188 182 176 179 191
Height
765 762 765 765 793 804 807 794 773 771 764 749 746 752 752 743 753 769 711 714 718 726 732 738 742 744 751 754 758 762 766 769 773 775 777 779 781 782 786 789 791 792 795 797 798 799 801 803 802
759 765 765 774 803 814 799 782 776 766 755 746 744 742 751 743 718 715 714 712 716 724 733 738 741 744 748 752 756 760 764 767 772 774 778 780 781 783 785 788 791 794 795 796 798 800 801 803 804
762 766 770 785 808 804 792 774 769 757 750 750 746 731 732 728 708 707 707 709 714 722 731 738 742 741 746 751 755 758 761 765 768 772 776 778 780 783 785 788 789 791 794 796 797 799 801 802 803
762 769 774 787 792 776 771 765 761 757 746 742 741 745 722 710 709 703 705 710 712 721 728 735 741 744 744 749 753 758 761 764 767 770 774 777 780 782 785 788 790 791 793 794 796 798 800 801 803
763 773 789 793 777 770 763 758 755 759 753 744 742 742 729 715 709 704 704 710 714 721 728 734 738 743 745 750 754 759 762 765 767 770 774 776 779 781 784 786 789 790 792 793 794 796 800 801 803
773 775 796 794 768 762 761 756 753 754 750 743 742 740 731 714 712 709 705 714 718 717 728 735 740 743 746 751 754 758 761 764 766 768 771 774 776 778 781 784 787 789 791 792 793 795 798 800 802
771 780 787 781 772 764 759 754 756 753 752 744 735 741 730 717 713 714 710 714 721 723 728 735 741 745 746 750 753 757 760 764 765 768 770 772 774 777 779 782 785 787 789 791 791 793 795 798 800
767 775 778 775 771 771 755 750 750 750 750 735 733 748 741 723 720 716 716 718 721 725 729 733 738 742 745 748 752 757 760 764 765 767 769 771 773 775 777 779 783 785 787 788 789 791 794 796 799
762 780 784 775 772 766 756 756 747 742 746 742 736 737 733 727 722 722 721 724 725 726 730 734 736 740 743 747 750 755 760 763 765 767 770 771 772 773 774 777 780 783 785 786 787 788 790 793 795
769 784 774 761 756 761 757 757 751 752 748 743 739 732 731 728 724 724 728 730 729 733 733 735 737 738 741 745 749 752 756 760 762 764 766 770 771 772 773 776 779 781 783 785 786 787 788 789 792
765 774 760 756 754 751 757 752 748 751 750 743 745 736 732 730 727 725 728 730 732 735 735 738 740 738 741 741 746 750 753 757 760 762 763 766 769 771 774 774 776 779 781 783 784 785 787 787 789
766 760 761 759 756 756 756 750 750 746 745 737 737 734 732 729 728 728 728 727 730 735 735 737 738 741 739 740 743 746 750 752 755 757 760 761 764 767 771 774 774 776 778 780 782 783 784 786 787
765 765 763 759 755 753 749 748 747 734 738 734 732 732 733 730 728 726 730 724 726 726 732 734 738 738 739 739 740 742 745 748 750 752 756 758 760 763 765 771 772 772 774 777 780 781 784 784 786
765 765 764 757 755 752 751 743 742 728 734 732 732 731 730 729 727 726 726 728 727 725 726 726 730 735 736 736 738 737 741 743 746 749 752 753 756 759 761 766 769 769 771 772 774 777 779 780 783
764 768 763 755 749 752 749 754 738 734 731 735 734 731 728 727 727 725 726 727 722 721 720 721 721 724 728 730 732 734 737 741 743 746 750 750 751 755 757 760 764 764 766 768 770 773 776 777 779
772 775 777 756 751 746 750 756 741 738 738 736 735 732 731 726 726 723 721 723 722 719 719 716 714 717 721 720 724 731 734 737 739 744 743 746 748 750 752 754 758 760 762 764 766 770 773 775 776
783 783 775 768 754 753 750 757 742 735 737 739 732 731 730 728 723 720 717 718 720 718 715 708 711 712 714 718 717 724 731 733 737 741 741 741 744 745 748 749 754 757 757 760 760 765 768 771 772
785 782 776 776 761 758 760 754 748 741 740 738 733 729 728 726 723 718 717 718 717 715 712 713 713 713 709 713 717 718 723 727 731 733 732 735 737 739 742 744 748 752 753 755 756 759 764 768 769
773 777 778 770 760 763 761 753 748 743 743 740 734 731 729 725 720 718 718 718 718 715 712 710 706 709 713 710 712 715 718 719 725 725 725 727 730 734 737 739 742 746 747 749 753 755 760 765 766
774 775 777 769 759 760 758 742 736 735 732 731 729 727 724 722 720 720 719 719 718 716 712 711 706 703 705 705 707 707 710 715 717 718 718 721 725 728 732 734 737 739 742 744 747 752 755 759 762
771 772 772 773 764 761 760 751 737 728 722 721 721 720 720 721 724 722 719 718 714 713 712 710 703 699 702 700 703 706 706 705 709 711 712 713 718 721 727 729 731 733 735 737 741 747 751 751 758
773 763 764 768 771 779 758 771 743 732 730 723 721 720 720 716 715 720 716 711 712 709 706 705 700 695 695 696 698 700 701 697 698 703 705 708 711 718 721 724 727 729 729 732 736 741 745 748 752
768 759 763 763 770 772 767 779 747 730 734 734 728 723 720 716 713 712 708 710 709 709 708 700 695 691 689 689 691 692 693 693 691 694 699 705 708 711 714 718 722 722 724 725 733 737 739 744 749
758 763 769 780 783 790 766 769 744 734 732 728 719 717 717 716 713 709 706 703 700 699 698 695 689 683 684 683 684 684 687 688 686 686 693 699 703 706 711 712 715 717 718 721 726 731 733 739 745
768 782 798 793 787 781 761 765 738 730 719 721 718 716 712 709 708 706 703 698 695 691 688 685 682 677 676 677 677 675 678 679 678 678 680 690 694 700 705 707 710 713 714 718 722 725 730 735 739
767 779 808 794 785 775 762 759 737 721 717 716 716 716 712 709 709 707 701 698 694 687 684 679 674 668 667 667 667 667 670 671 672 672 674 680 686 693 698 702 707 709 712 717 719 721 726 731 734
767 779 777 784 782 801 774 749 725 713 713 715 715 713 711 710 708 705 700 693 686 682 677 673 669 661 659 658 658 657 659 661 663 665 667 673 681 687 692 698 702 706 710 716 717 719 725 726 732
762 767 780 817 809 813 764 753 734 720 713 715 715 711 709 709 706 700 695 689 680 672 668 664 660 653 647 643 645 646 647 650 654 659 662 667 674 680 685 692 698 703 708 714 714 720 723 723 730
768 774 778 795 803 793 762 733 721 718 716 716 715 713 710 706 702 698 689 680 674 665 658 653 650 643 636 634 631 634 637 640 646 652 656 661 667 674 680 687 692 698 705 710 710 719 720 722 728
762 769 774 796 772 779 776 720 707 709 709 715 709 705 705 701 699 693 684 678 672 662 653 646 638 631 624 622 623 623 627 631 637 644 650 655 663 670 674 682 688 694 702 704 711 716 717 721 727